Weather History for KLWS - June, 2014

Change the Weather History Date:

Tuesday, June 10, 2014

  Actual Average Record
Temperature  
Mean Temperature 66 °F 64 °F  
Max Temperature 79 °F 77 °F 99 °F (1910)
Min Temperature 53 °F 52 °F 38 °F (1897)
Degree Days  
Heating Degree Days 0 3  
Month to date heating degree days 0 35  
Since 1 June heating degree days 0 35  
Since 1 July heating degree days 5289 5132  
Cooling Degree Days 1 2  
Month to date cooling degree days 37 20  
Year to date cooling degree days 65 52  
Since 1 June cooling degree days 37 20  
Growing Degree Days 16 (Base 50)    
Moisture  
Dew Point 30 °F    
Average Humidity 29    
Maximum Humidity 43    
Minimum Humidity 15    
Precipitation  
Precipitation T in 0.04 in 0.51 in (1983)
Month to date precipitation 0.15 0.50  
Year to date precipitation 5.44 6.44  
Snow  
Snow 0.00 in 0.00 in 0.00 in (1995)
Month to date snowfall 0.0 0.0  
Since 1 June snowfall 0.0 0.0  
Since 1 July snowfall 16.5 10.5  
Snow Depth 0.00 in    
Sea Level Pressure  
Sea Level Pressure 29.88 in    
Wind  
Wind Speed 10 mph (WNW)    
Max Wind Speed 24 mph    
Max Gust Speed 33 mph    
Visibility 10 miles    
Events      
T = Trace of Precipitation, MM = Missing Value Source: NWS Daily Summary

Daily Weather History Graph

Daily Weather History Graph

Search for Another Location

Airport or City:

Trip Planner

Search our weather history database for the weather conditions in past years. The results will help you decide how hot, cold, wet, or windy it might be!

Date:

Astronomy

Jun. 10, 2014 Rise Set
Actual Time 4:55 AM PDT 8:39 PM PDT
Civil Twilight 4:17 AM PDT 9:18 PM PDT
Nautical Twilight 3:24 AM PDT 10:10 PM PDT
Astronomical Twilight 2:12 AM PDT 11:23 PM PDT
Moon 6:02 PM PDT (6/10) 3:14 AM PDT (6/10)
Length of Visible Light 17h 01m
Length of Day
15h 44m
Waxing Gibbous, 93% of the Moon is Illuminated
Jun 10
Waxing Gibbous
Jun 12
Full
Jun 19
Last Quarter
Jun 27
New
Jul 5
First Quarter

Hourly Weather History & Observations

Time (PDT) Temp. Dew Point Humidity Pressure Visibility Wind Dir Wind Speed Gust Speed Precip Events Conditions
12:56 AM 62.1 °F 34.0 °F 35% 29.85 in 10.0 mi WSW 4.6 mph - N/A   Clear
1:56 AM 60.8 °F 33.8 °F 36% 29.88 in 10.0 mi West 5.8 mph - N/A   Clear
2:56 AM 60.1 °F 32.0 °F 35% 29.86 in 10.0 mi West 5.8 mph - N/A   Clear
3:56 AM 59.0 °F 32.0 °F 36% 29.88 in 10.0 mi WNW 4.6 mph - N/A   Clear
4:56 AM 55.0 °F 33.1 °F 43% 29.89 in 10.0 mi South 4.6 mph - N/A   Clear
5:56 AM 55.9 °F 33.1 °F 42% 29.90 in 10.0 mi SSE 4.6 mph - N/A   Clear
6:56 AM 60.1 °F 34.0 °F 38% 29.90 in 10.0 mi South 4.6 mph - N/A   Clear
7:56 AM 64.9 °F 32.0 °F 29% 29.90 in 10.0 mi Calm Calm - N/A   Clear
8:56 AM 66.9 °F 30.0 °F 25% 29.90 in 10.0 mi Variable 5.8 mph - N/A   Clear
9:56 AM 72.0 °F 28.9 °F 20% 29.89 in 10.0 mi NW 12.7 mph 18.4 mph N/A   Clear
10:56 AM 73.4 °F 28.4 °F 19% 29.91 in 10.0 mi NNW 17.3 mph 25.3 mph N/A   Clear
11:56 AM 75.9 °F 28.9 °F 18% 29.88 in 10.0 mi NNW 16.1 mph 23.0 mph N/A   Clear
12:56 PM 75.9 °F 28.9 °F 18% 29.88 in 10.0 mi WNW 16.1 mph 26.5 mph N/A   Clear
1:56 PM 78.1 °F 27.0 °F 15% 29.89 in 10.0 mi NNW 16.1 mph 24.2 mph N/A   Clear
2:56 PM 75.0 °F 28.0 °F 18% 29.88 in 10.0 mi NNW 11.5 mph 21.9 mph N/A   Scattered Clouds
3:56 PM 78.1 °F 28.0 °F 16% 29.87 in 10.0 mi NW 18.4 mph 23.0 mph N/A   Clear
4:56 PM 77.0 °F 27.0 °F 16% 29.86 in 10.0 mi WNW 20.7 mph 27.6 mph N/A   Clear
5:56 PM 77.0 °F 26.1 °F 15% 29.86 in 10.0 mi WNW 16.1 mph 27.6 mph N/A   Clear
6:56 PM 75.9 °F 27.0 °F 16% 29.87 in 10.0 mi West 10.4 mph - N/A   Clear
7:56 PM 73.0 °F 28.0 °F 19% 29.87 in 10.0 mi West 8.1 mph - N/A   Clear
9:56 PM 70.0 °F 32.0 °F 25% 29.89 in 10.0 mi NNW 4.6 mph - 0.00 in   Overcast
10:56 PM 66.9 °F 30.9 °F 26% 29.90 in 10.0 mi SSW 5.8 mph - 0.00 in   Mostly Cloudy
11:56 PM 66.0 °F 32.0 °F 28% 29.91 in 10.0 mi SW 3.5 mph - N/A   Partly Cloudy